Content
SEND FEEDBACK

Daily
Averages
Monthly
Summary
United States of America

CHAMPAIGN, ILLINOIS


Home > North America > United States > Illinois
Elevation: 736 feet     Latitude: 40 05N     Longitude: 088 13W

WEATHER
 
SELECT A DAY
Number of Records: 197,928;   Date Range: 1/1/95 - 9/29/14
 
SHARE

PRINT THIS DATA

[ ← Previous Day ]
WEATHER ALMANAC - APRIL 21, 2013
[ Next Day → ]
[ °C ]   °F
Weather ElementAverageHighLow
Temperature44.2 °F55 °F (4:53 pm)34 °F (2:53 am)
Dewpoint33.4 °F39.9 °F (7:53 pm)28 °F (6:53 am)
Humidity67.2 %85 % (2:53 am)47 % (4:53 pm)
Barometer30.42 in30.51 in (7:53 am)30.34 in (11:53 pm)
Wind Speed11.2 mph17.3 mph (8:53 am)
Wind Gust21.9 mph (12:53 pm)
Weather ElementAverage
Visibility10 mi
Wind DirectionESE (107.8 °)

Weather ElementTotal
Precipitation---
Heating Degree Days20.5 (Base 65)
Averaged from 23 records on April 21, 2013
WEATHER CONDITIONS BREAKOUT
WIND DIRECTION BREAKOUT
WEATHER BY HOUR - APRIL 21, 2013
[ °C ]   °F
Local TimeTemperatureDewpointHumidityBarometerVisibilityWind DirectionWind SpeedGust SpeedPrecipitationEventsConditions
1:53 AM35.1 °F30.0 °F82 %30.43 in10.0 miESE (110°)6.9 mphClear
2:53 AM34.0 °F30.0 °F85 %30.43 in10.0 miEast (90°)5.8 mphClear
3:53 AM34.0 °F28.9 °F82 %30.44 in10.0 miEast (80°)8.1 mphClear
4:53 AM34.0 °F28.9 °F82 %30.46 in10.0 miEast (80°)9.2 mphClear
5:53 AM34.0 °F28.9 °F82 %30.47 in10.0 miEast (90°)10.4 mphClear
6:53 AM35.1 °F28.0 °F76 %30.49 in10.0 miEast (100°)12.7 mphClear
7:53 AM37.0 °F28.0 °F70 %30.51 in10.0 miESE (110°)12.7 mphClear
8:53 AM39.9 °F28.9 °F65 %30.51 in10.0 miSE (130°)17.3 mphClear
9:53 AM44.1 °F32.0 °F63 %30.51 in10.0 miESE (120°)16.1 mphClear
10:53 AM46.0 °F33.1 °F61 %30.50 in10.0 miSE (140°)16.1 mphClear
11:53 AM48.9 °F34.0 °F56 %30.48 in10.0 miESE (120°)13.8 mphClear
12:53 PM51.1 °F36.0 °F56 %30.45 in10.0 miESE (120°)12.7 mph21.9 mphClear
1:53 PM52.0 °F36.0 °F54 %30.43 in10.0 miESE (120°)16.1 mphClear
2:53 PM53.1 °F35.1 °F50 %30.40 in10.0 miESE (120°)13.8 mphClear
3:53 PM54.0 °F35.1 °F49 %30.37 in10.0 miEast (100°)15.0 mph21.9 mphClear
4:53 PM55.0 °F35.1 °F47 %30.36 in10.0 miESE (110°)11.5 mphClear
5:53 PM55.0 °F35.1 °F47 %30.35 in10.0 miESE (120°)12.7 mphClear
6:53 PM53.1 °F37.0 °F55 %30.35 in10.0 miESE (110°)9.2 mphClear
7:53 PM48.0 °F39.9 °F74 %30.35 in10.0 miEast (100°)8.1 mphClear
8:53 PM46.0 °F39.0 °F76 %30.35 in10.0 miEast (90°)6.9 mphClear
9:53 PM43.0 °F37.0 °F80 %30.36 in10.0 miEast (100°)6.9 mphClear
10:53 PM42.1 °F36.0 °F79 %30.35 in10.0 miESE (110°)8.1 mphClear
11:53 PM43.0 °F35.1 °F74 %30.34 in10.0 miESE (110°)6.9 mphClear
Hourly data recorded from KCMI, located miles away from Champaign, Illinois







STORIES FROM OUR PARTNERS